Location: Aciu?a
(46.2833°N, 22.4500°E)
Time: 13:14:43
(UTC+00:00)

Cosmos 2278 Rocket - Pass Details

Date: 25 October 2021
Orbit: 841 x 845 km, 71.0° (Epoch: 06 December)

Event Time Altitude Azimuth Distance (km) Brightness Sun altitude
Rises 19:15:19 0° 330° (NNW) 3,414 6.0 -39.4°
Reaches altitude 10° 19:17:49 10° 326° (NW) 2,475 5.2 -39.8°
Enters shadow 19:19:51 22° 319° (NW) 1,752 4.3 -40.1°
